Location: Peebles
(55.6412°N, 3.1714°W)
Time: 22:13:49
(UTC+00:00)

FENGYUN 1C DEB - Pass Details

Date: 06 February 2023
Orbit: 707 x 862 km, 98.5° (Epoch: 07 November)

Event Time Altitude Azimuth Distance (km) Brightness Sun altitude
Rises 17:59:56 0° 126° (SE) 3,400 ? -9.1°
Reaches altitude 10° 18:02:31 10° 116° (ESE) 2,475 ? -9.4°
Maximum altitude 18:07:16 31° 57° (ENE) 1,469 ? -10.1°
Drops below altitude 10° 18:12:01 10° 357° (N) 2,482 ? -10.7°
Sets 18:14:37 0° 348° (NNW) 3,411 ? -11.1°
